Location: Absher
(46.5583°N, 107.9840°W)
Time: 22:11:37
(UTC+00:00)

FO-99 - Visible Passes

Search period start: 22 March 2023 00:00
Search period end: 01 April 2023 00:00
Orbit: 426 x 445 km, 97.1° (Epoch: 22 March)

Date Brightness Start Highest point End Pass type
(mag) Time Alt. Az. Time Alt. Az. Time Alt. Az.
22 Mar ? 02:49:22 10° SSW 02:52:01 21° W 02:54:42 10° NW visible
23 Mar ? 02:09:09 10° S 02:12:30 69° WSW 02:15:53 10° NNW visible
24 Mar ? 03:03:43 10° SW 03:05:44 15° W 03:07:46 10° NW visible
25 Mar ? 02:22:44 10° S 02:25:58 44° W 02:29:13 10° NNW visible
26 Mar ? 03:18:33 10° W 03:19:07 10° W 03:19:42 10° W visible
27 Mar ? 02:36:06 10° SSW 02:39:07 30° W 02:42:07 10° NNW visible
29 Mar ? 02:49:17 10° SW 02:51:55 21° W 02:54:33 10° NW visible
30 Mar ? 02:08:28 10° S 02:11:47 70° WSW 02:15:08 10° NNW visible
31 Mar ? 03:02:20 10° SW 03:04:23 15° W 03:06:26 10° NW visible
